TimeCST,TemperatureF,Dew PointF,Humidity,Sea Level PressureIn,VisibilityMPH,Wind Direction,Wind SpeedMPH,Gust SpeedMPH,PrecipitationIn,Events,Conditions,WindDirDegrees,DateUTC
12:53 AM,37.0,28.9,73,30.01,10.0,NW,13.8,27.6,N/A,,Overcast,320,2012-12-26 06:53:00
1:53 AM,36.0,28.9,76,30.03,10.0,NW,18.4,25.3,N/A,,Overcast,310,2012-12-26 07:53:00
2:53 AM,36.0,30.0,79,30.04,10.0,NW,17.3,25.3,N/A,,Overcast,320,2012-12-26 08:53:00
3:53 AM,36.0,30.0,79,30.07,10.0,NW,12.7,19.6,N/A,,Overcast,320,2012-12-26 09:53:00
4:53 AM,36.0,30.0,79,30.09,10.0,NW,15.0,21.9,N/A,,Overcast,310,2012-12-26 10:53:00
5:53 AM,35.1,28.9,78,30.11,10.0,WNW,15.0,-,N/A,,Overcast,300,2012-12-26 11:53:00
6:53 AM,35.1,28.9,78,30.14,10.0,WNW,13.8,-,N/A,,Overcast,300,2012-12-26 12:53:00
7:53 AM,35.1,28.9,78,30.15,9.0,NW,12.7,-,N/A,,Overcast,320,2012-12-26 13:53:00
8:53 AM,36.0,28.0,73,30.18,10.0,NW,17.3,-,N/A,,Overcast,320,2012-12-26 14:53:00
9:53 AM,37.0,28.9,73,30.21,10.0,NW,17.3,-,N/A,,Overcast,320,2012-12-26 15:53:00
10:53 AM,39.0,30.0,70,30.22,10.0,NNW,15.0,19.6,N/A,,Overcast,340,2012-12-26 16:53:00
11:53 AM,41.0,30.0,65,30.20,10.0,NNW,12.7,20.7,N/A,,Mostly Cloudy,330,2012-12-26 17:53:00
11:57 AM,41.0,30.2,65,30.19,10.0,NNW,12.7,20.7,N/A,,Clear,330,2012-12-26 17:57:00
12:53 PM,44.1,30.9,60,30.17,10.0,NNW,9.2,16.1,N/A,,Clear,330,2012-12-26 18:53:00
1:53 PM,46.9,30.9,54,30.15,10.0,NNW,11.5,-,N/A,,Clear,330,2012-12-26 19:53:00
2:53 PM,46.9,32.0,56,30.13,10.0,NNW,10.4,-,N/A,,Clear,340,2012-12-26 20:53:00
3:53 PM,46.9,32.0,56,30.13,10.0,NW,9.2,-,N/A,,Clear,320,2012-12-26 21:53:00
4:53 PM,45.0,32.0,60,30.14,10.0,NW,4.6,-,N/A,,Clear,310,2012-12-26 22:53:00
5:53 PM,42.8,33.8,70,30.14,10.0,North,4.6,-,N/A,,Clear,360,2012-12-26 23:53:00
6:53 PM,43.0,33.1,68,30.16,10.0,NNE,6.9,-,N/A,,Clear,20,2012-12-27 00:53:00
7:53 PM,41.0,32.0,70,30.17,10.0,NNE,8.1,-,N/A,,Clear,30,2012-12-27 01:53:00
8:53 PM,39.0,30.9,73,30.17,10.0,NNE,3.5,-,N/A,,Clear,30,2012-12-27 02:53:00
9:53 PM,37.0,30.9,79,30.17,10.0,NE,6.9,-,N/A,,Clear,40,2012-12-27 03:53:00
10:53 PM,37.0,30.9,79,30.17,10.0,NNE,6.9,-,N/A,,Clear,30,2012-12-27 04:53:00
11:53 PM,36.0,30.0,79,30.16,10.0,NE,4.6,-,N/A,,Clear,50,2012-12-27 05:53:00